TimeMST,TemperatureF,Dew PointF,Humidity,Sea Level PressureIn,VisibilityMPH,Wind Direction,Wind SpeedMPH,Gust SpeedMPH,PrecipitationIn,Events,Conditions,WindDirDegrees,DateUTC
12:53 AM,-8.0,-11.0,86,30.35,10.0,Calm,Calm,-,N/A,,Clear,0,2012-12-29 07:53:00
1:53 AM,-9.0,-11.9,87,30.36,10.0,Calm,Calm,-,N/A,,Clear,0,2012-12-29 08:53:00
2:53 AM,-13.0,-16.1,86,30.39,10.0,Calm,Calm,-,N/A,,Clear,0,2012-12-29 09:53:00
3:53 AM,-11.9,-17.0,78,30.40,10.0,ENE,3.5,-,N/A,,Clear,70,2012-12-29 10:53:00
4:53 AM,-11.0,-16.1,78,30.42,10.0,Calm,Calm,-,N/A,,Clear,0,2012-12-29 11:53:00
5:53 AM,-11.9,-14.1,90,30.48,10.0,Calm,Calm,-,N/A,,Clear,0,2012-12-29 12:53:00
6:53 AM,-13.0,-17.0,82,30.50,10.0,Calm,Calm,-,N/A,,Clear,0,2012-12-29 13:53:00
7:53 AM,-9.9,-14.1,82,30.51,10.0,Calm,Calm,-,N/A,,Clear,0,2012-12-29 14:53:00
8:53 AM,-8.0,-13.0,79,30.53,10.0,ENE,5.8,-,N/A,,Clear,60,2012-12-29 15:53:00
9:53 AM,-6.0,-9.9,83,30.49,10.0,ESE,4.6,-,N/A,,Clear,110,2012-12-29 16:53:00
10:53 AM,-2.0,-5.1,87,30.48,10.0,Calm,Calm,-,N/A,,Clear,0,2012-12-29 17:53:00
11:53 AM,1.0,-4.0,79,30.45,10.0,Calm,Calm,-,N/A,,Clear,0,2012-12-29 18:53:00
12:53 PM,7.0,-2.0,67,30.36,10.0,ENE,4.6,-,N/A,,Clear,60,2012-12-29 19:53:00
1:53 PM,9.0,-0.0,67,30.33,10.0,Calm,Calm,-,N/A,,Clear,0,2012-12-29 20:53:00
2:53 PM,10.9,1.0,64,30.32,10.0,Calm,Calm,-,N/A,,Partly Cloudy,0,2012-12-29 21:53:00
3:53 PM,8.6,-0.4,67,29.99,10.0,South,4.6,-,N/A,,Clear,190,2012-12-29 22:53:00
4:53 PM,3.0,-4.0,73,30.31,10.0,Calm,Calm,-,N/A,,Partly Cloudy,0,2012-12-29 23:53:00
5:53 PM,-0.4,-5.8,78,29.95,10.0,NNW,4.6,-,N/A,,Overcast,340,2012-12-30 00:53:00
6:53 PM,-6.0,-9.0,87,30.37,10.0,East,4.6,-,N/A,,Partly Cloudy,90,2012-12-30 01:53:00
7:53 PM,-6.0,-9.9,83,30.34,10.0,East,3.5,-,N/A,,Scattered Clouds,90,2012-12-30 02:53:00
8:53 PM,-9.0,-14.1,79,30.36,10.0,Calm,Calm,-,N/A,,Overcast,0,2012-12-30 03:53:00
9:53 PM,-8.0,-13.0,79,30.35,10.0,Calm,Calm,-,N/A,,Mostly Cloudy,0,2012-12-30 04:53:00
10:53 PM,-7.1,-11.9,79,30.32,10.0,Calm,Calm,-,N/A,,Mostly Cloudy,0,2012-12-30 05:53:00
11:53 PM,-7.1,-11.9,79,30.30,10.0,NNW,3.5,-,N/A,,Mostly Cloudy,340,2012-12-30 06:53:00